Weather History for Wolf Creek Pass, CO

Change the Weather History Date:

Saturday, November 3, 2012

  Actual Average (KALS) Record (KALS)
Temperature  
Mean Temperature 32 °F 36 °F  
Max Temperature 37 °F 54 °F 66 °F (1988)
Min Temperature 26 °F 18 °F -26 °F (1991)
Degree Days  
Heating Degree Days 34 29  
Month to date heating degree days 86  
Since 1 July heating degree days 1196  
Cooling Degree Days 0 0  
Month to date cooling degree days 0  
Year to date cooling degree days 51  
Moisture  
Dew Point 6 °F    
Average Humidity 36    
Maximum Humidity 47    
Minimum Humidity 24    
Precipitation  
Precipitation 0.00 in 0.02 in 0.15 in (1978)
Month to date precipitation 0.06  
Year to date precipitation 6.60  
Snow  
Snow 0.00 in 0.10 in 1.40 in (1952)
Month to date snowfall 0.3  
Since 1 July snowfall 2.4  
Since 1 September snowfall 2.4  
Snow Depth -    
Sea Level Pressure  
Sea Level Pressure 30.39 in    
Wind  
Wind Speed 13 mph (SW)    
Max Wind Speed 22 mph    
Max Gust Speed 26 mph    
Visibility 10 miles    
Events      
T = Trace of Precipitation, MM = Missing Value Source: NWS Daily Summary

Daily Weather History Graph

Daily Weather History Graph

Search for Another Location

Airport:

Trip Planner

Search our weather history database for the weather conditions in past years. The results will help you decide how hot, cold, wet, or windy it might be!

Date:

Astronomy

Nov. 03, 2012 Rise Set
Actual Time 7:34 AM MDT 6:06 PM MDT
Civil Twilight 7:07 AM MDT 6:33 PM MDT
Nautical Twilight 6:36 AM MDT 7:04 PM MDT
Astronomical Twilight 6:05 AM MDT 7:35 PM MDT
Moon 9:52 PM MDT (11/3) 11:38 AM MDT (11/3)
Length of Visible Light 11h 26m
Length of Day
10h 31m
Waning Gibbous, 80% of the Moon is Illuminated
Nov 3
Waning Gibbous
Nov 6
Last Quarter
Nov 13
New
Nov 20
First Quarter
Nov 28
Full

Hourly Weather History & Observations

Time (MDT) Temp. Windchill Dew Point Humidity Pressure Visibility Wind Dir Wind Speed Gust Speed Precip Events Conditions
12:19 AM 28.4 °F 17.5 °F 8.6 °F 43% 30.34 in 10.0 mi SW 13.8 mph - N/A   Clear
12:39 AM 28.4 °F 17.0 °F 8.6 °F 43% 30.34 in 10.0 mi SW 15.0 mph - N/A   Clear
12:59 AM 26.6 °F 15.2 °F 8.6 °F 47% 30.34 in 10.0 mi SW 13.8 mph - N/A   Clear
1:19 AM 28.4 °F 17.0 °F 8.6 °F 43% 30.34 in 10.0 mi SW 15.0 mph - N/A   Clear
1:39 AM 28.4 °F 18.5 °F 6.8 °F 40% 30.34 in 10.0 mi WSW 11.5 mph - N/A   Clear
1:59 AM 28.4 °F 19.7 °F 8.6 °F 43% 30.35 in 10.0 mi SW 9.2 mph - N/A   Clear
2:19 AM 28.4 °F 19.7 °F 8.6 °F 43% 30.35 in 10.0 mi WSW 9.2 mph - N/A   Clear
2:39 AM 28.4 °F 19.1 °F 8.6 °F 43% 30.36 in 10.0 mi WSW 10.4 mph - N/A   Clear
2:59 AM 26.6 °F 16.2 °F 8.6 °F 47% 30.36 in 10.0 mi SW 11.5 mph - N/A   Clear
3:19 AM 28.4 °F 19.1 °F 8.6 °F 43% 30.36 in 10.0 mi SW 10.4 mph 16.1 mph N/A   Clear
3:39 AM 26.6 °F 16.8 °F 6.8 °F 43% 30.36 in 10.0 mi SW 10.4 mph - N/A   Clear
3:59 AM 26.6 °F 17.5 °F 8.6 °F 47% 30.36 in 10.0 mi SW 9.2 mph - N/A   Clear
4:19 AM 26.6 °F 16.8 °F 6.8 °F 43% 30.36 in 10.0 mi SW 10.4 mph - N/A   Clear
4:39 AM 26.6 °F 16.2 °F 8.6 °F 47% 30.36 in 10.0 mi SW 11.5 mph - N/A   Clear
4:59 AM 26.6 °F 15.7 °F 8.6 °F 47% 30.36 in 10.0 mi SW 12.7 mph - N/A   Clear
5:19 AM 26.6 °F 15.7 °F 6.8 °F 43% 30.36 in 10.0 mi SW 12.7 mph 18.4 mph N/A   Clear
5:39 AM 26.6 °F 14.7 °F 3.2 °F 37% 30.36 in 10.0 mi SW 15.0 mph - N/A   Clear
5:59 AM 26.6 °F 15.2 °F 5.0 °F 40% 30.37 in 10.0 mi SW 13.8 mph - N/A   Scattered Clouds
6:19 AM 26.6 °F 14.3 °F 5.0 °F 40% 30.37 in 10.0 mi SW 16.1 mph - N/A   Clear
6:39 AM 26.6 °F 14.7 °F 3.2 °F 37% 30.36 in 10.0 mi SW 15.0 mph - N/A   Clear
6:59 AM 26.6 °F 14.3 °F 3.2 °F 37% 30.36 in 10.0 mi SW 16.1 mph - N/A   Scattered Clouds
7:19 AM 26.6 °F 13.8 °F 3.2 °F 37% 30.36 in 10.0 mi SW 17.3 mph 21.9 mph N/A   Scattered Clouds
7:39 AM 26.6 °F 13.4 °F 3.2 °F 37% 30.36 in 10.0 mi SW 18.4 mph 23.0 mph N/A   Scattered Clouds
7:59 AM 26.6 °F 14.3 °F 3.2 °F 37% 30.37 in 10.0 mi SW 16.1 mph - N/A   Clear
8:19 AM 28.4 °F 16.6 °F 3.2 °F 34% 30.38 in 10.0 mi SW 16.1 mph - N/A   Clear
8:39 AM 28.4 °F 17.5 °F 3.2 °F 34% 30.38 in 10.0 mi SW 13.8 mph - N/A   Clear
8:59 AM 30.2 °F 19.8 °F 5.0 °F 34% 30.39 in 10.0 mi SW 13.8 mph 17.3 mph N/A   Clear
9:19 AM 32.0 °F 23.6 °F 3.2 °F 30% 30.39 in 10.0 mi SW 10.4 mph 17.3 mph N/A   Clear
9:39 AM 32.0 °F 24.2 °F 3.2 °F 30% 30.40 in 10.0 mi SSW 9.2 mph - N/A   Clear
9:59 AM 32.0 °F 24.2 °F 3.2 °F 30% 30.40 in 10.0 mi SSW 9.2 mph 19.6 mph N/A   Clear
10:19 AM 33.8 °F 26.4 °F 3.2 °F 28% 30.40 in 10.0 mi SSW 9.2 mph 18.4 mph N/A   Clear
10:39 AM 33.8 °F 27.0 °F 3.2 °F 28% 30.41 in 10.0 mi SSW 8.1 mph 18.4 mph N/A   Clear
10:59 AM 33.8 °F 27.7 °F 3.2 °F 28% 30.41 in 10.0 mi SSW 6.9 mph - N/A   Clear
11:19 AM 35.6 °F 28.6 °F 3.2 °F 26% 30.41 in 10.0 mi SSW 9.2 mph - N/A   Clear
11:39 AM 33.8 °F 26.4 °F 3.2 °F 28% 30.42 in 10.0 mi SSW 9.2 mph 21.9 mph N/A   Clear
11:59 AM 35.6 °F 29.9 °F 1.4 °F 24% 30.42 in 10.0 mi SSW 6.9 mph 20.7 mph N/A   Clear
12:19 PM 35.6 °F 28.0 °F 3.2 °F 26% 30.41 in 10.0 mi SSW 10.4 mph 18.4 mph N/A   Clear
12:39 PM 35.6 °F 29.9 °F 3.2 °F 26% 30.41 in 10.0 mi SSW 6.9 mph 20.7 mph N/A   Clear
12:59 PM 35.6 °F 28.0 °F 3.2 °F 26% 30.41 in 10.0 mi SW 10.4 mph 21.9 mph N/A   Clear
1:19 PM 35.6 °F 26.6 °F 3.2 °F 26% 30.40 in 10.0 mi SSW 13.8 mph 21.9 mph N/A   Clear
1:39 PM 35.6 °F 27.5 °F 3.2 °F 26% 30.40 in 10.0 mi SSW 11.5 mph 24.2 mph N/A   Clear
1:59 PM 35.6 °F 27.1 °F 5.0 °F 28% 30.40 in 10.0 mi SSW 12.7 mph 23.0 mph N/A   Clear
2:19 PM 37.4 °F 29.3 °F 5.0 °F 26% 30.40 in 10.0 mi WSW 12.7 mph 20.7 mph N/A   Clear
2:39 PM 37.4 °F 28.9 °F 6.8 °F 28% 30.39 in 10.0 mi SSW 13.8 mph 21.9 mph N/A   Clear
2:59 PM 37.4 °F 29.8 °F 6.8 °F 28% 30.39 in 10.0 mi WSW 11.5 mph 21.9 mph N/A   Clear
3:19 PM 35.6 °F 26.6 °F 6.8 °F 30% 30.39 in 10.0 mi SW 13.8 mph 20.7 mph N/A   Clear
3:39 PM 35.6 °F 25.9 °F 8.6 °F 33% 30.39 in 10.0 mi WSW 16.1 mph 21.9 mph N/A   Clear
3:59 PM 37.4 °F 29.8 °F 8.6 °F 30% 30.40 in 10.0 mi SSW 11.5 mph 20.7 mph N/A   Clear
4:19 PM 37.4 °F 30.3 °F 8.6 °F 30% 30.40 in 10.0 mi SSW 10.4 mph 24.2 mph N/A   Clear
4:39 PM 35.6 °F 25.9 °F 6.8 °F 30% 30.39 in 10.0 mi SW 16.1 mph 24.2 mph N/A   Clear
4:59 PM 35.6 °F 26.6 °F 6.8 °F 30% 30.39 in 10.0 mi SW 13.8 mph 24.2 mph N/A   Clear
5:19 PM 33.8 °F 24.3 °F 6.8 °F 32% 30.39 in 10.0 mi SW 13.8 mph 23.0 mph N/A   Clear
5:39 PM 33.8 °F 22.8 °F 6.8 °F 32% 30.39 in 10.0 mi SW 18.4 mph 23.0 mph N/A   Clear
5:59 PM 32.0 °F 20.5 °F 6.8 °F 35% 30.40 in 10.0 mi SW 18.4 mph 25.3 mph N/A   Clear
6:19 PM 32.0 °F 20.1 °F 8.6 °F 38% 30.40 in 10.0 mi SW 19.6 mph 26.5 mph N/A   Clear
6:39 PM 32.0 °F 19.5 °F 8.6 °F 38% 30.40 in 10.0 mi SW 21.9 mph 25.3 mph N/A   Clear
6:59 PM 32.0 °F 20.5 °F 6.8 °F 35% 30.41 in 10.0 mi SW 18.4 mph 26.5 mph N/A   Clear
7:19 PM 30.2 °F 18.5 °F 8.6 °F 40% 30.42 in 10.0 mi SW 17.3 mph 23.0 mph N/A   Clear
7:39 PM 30.2 °F 20.2 °F 8.6 °F 40% 30.42 in 10.0 mi SW 12.7 mph 20.7 mph N/A   Clear
7:59 PM 30.2 °F 19.3 °F 8.6 °F 40% 30.42 in 10.0 mi SW 15.0 mph 18.4 mph N/A   Clear
8:19 PM 30.2 °F 20.8 °F 8.6 °F 40% 30.43 in 10.0 mi SW 11.5 mph - N/A   Clear
8:39 PM 30.2 °F 20.8 °F 8.6 °F 40% 30.43 in 10.0 mi SW 11.5 mph - N/A   Clear
8:59 PM 28.4 °F 17.5 °F 8.6 °F 43% 30.43 in 10.0 mi SW 13.8 mph - N/A   Clear
9:19 PM 28.4 °F 18.5 °F 8.6 °F 43% 30.44 in 10.0 mi SW 11.5 mph - N/A   Clear
9:39 PM 28.4 °F 18.5 °F 8.6 °F 43% 30.44 in 10.0 mi SSW 11.5 mph - N/A   Clear
9:59 PM 28.4 °F 18.5 °F 8.6 °F 43% 30.45 in 10.0 mi SW 11.5 mph - N/A   Clear
10:19 PM 28.4 °F 20.4 °F 8.6 °F 43% 30.45 in 10.0 mi WSW 8.1 mph - N/A   Clear
10:39 PM 28.4 °F 21.2 °F 8.6 °F 43% 30.45 in 10.0 mi West 6.9 mph - N/A   Clear
10:59 PM 30.2 °F 25.4 °F 8.6 °F 40% 30.45 in 10.0 mi West 4.6 mph - N/A   Clear
11:19 PM 30.2 °F 23.4 °F 8.6 °F 40% 30.45 in 10.0 mi WNW 6.9 mph - N/A   Clear
11:39 PM 28.4 °F 22.2 °F 8.6 °F 43% 30.45 in 10.0 mi WNW 5.8 mph - N/A   Clear
11:59 PM 30.2 °F 22.6 °F 8.6 °F 40% 30.44 in 10.0 mi WSW 8.1 mph - N/A   Clear